Hauptseite
METAR-TAF:

METAR-TAF

Flughäfen :

Hohenfels, Deutschland

Breite: 49-13N, Länge: 011-50E, Höhe: 442 m

Beobachtung

Neuester Wetterbericht von vor 54 Minuten, um 01:56 UTC
Windstille
Temperatur 20°C
Luftfeuchtigkeit 60%
Luftdruck 1016 hPa
Sichtweite 10 km oder mehr
Durchbrochene Bewölkung in der Höhe von 9000 ft
Geschlossene Wolkendecke in der Höhe von 12000 ft

METAR: ETIH 180156Z AUTO 00000KT 9999 BKN090 OVC120 20/12 A3001 RMK AO2 SLP144 T01970120 $

Zeit: 04:50 (02:50 UTC)


TAF: fehlend

Wetterbeobachtungen und Prognosen von mehr als 4000 Flughäfen (METAR und TAF Bericht).

Die verfügbaren Stationen werden durch gelbe und rote Markierungen auf der Karte dargestellt.

Führen Sie die Maus auf sie, um den Namen der Station zu sehen.

Darauf klicken, um die Beobachtung von Wetterbeobachtungen und Prognosen zu sehen.

Um die Karte zu ändern : klicken Sie auf den grünen Tasten mit einem schwarzen Kreuz Zum Vergrößern, auf den grünen Button mit einem Gedankenstrich zu verkleinern, oder auf die grünen Pfeile für benachbarte Karten.


METAR-TAF: